Regional Weather Roundup
Issued by NWS Charleston, SC

Current Version | Previous Version | Text Only | Print | Product List | Glossary Off
Versions: 1 2 3 4 5 6 7 8 9 10 11 12 13 14 15 16 17 18 19 20 21 22 23 24 25 26 27 28 29 30 31 32 33 34 35 36 37 38 39 40 41 42 43 44 45 46 47 48 49 50
000 ASUS42 KCHS 012025 RWRCHS REGIONAL WEATHER ROUNDUP NATIONAL WEATHER SERVICE CHARLESTON SC 400 PM EDT WED OCT 01 2014 NOTE: "FAIR" INDICATES FEW OR NO CLOUDS BELOW 12,000 FEET WITH NO SIGNIFICANT WEATHER AND/OR OBSTRUCTIONS TO VISIBILITY. NOT ALL STATIONS ARE QUALITY CONTROLLED BY THE NATIONAL WEATHER SERVICE. USE DATA WITH CAUTION...ESPECIALLY DEWPOINT OBSERVATIONS. SCZ027-030-031-034>040-042>050-012100- ...SOUTH CAROLINA... CITY SKY/WX TMP DP RH WIND PRES REMARKS N CHARLESTON MOSUNNY 83 61 47 CALM 29.97S WATERFRONT PRK N/A 77 N/A N/A SE10 N/A FORT JOHNSON NOT AVBL MOUNT PLEASANT FAIR 79 68 69 SE5 29.97F JOHNS ISLAND CLEAR 81 75 83 E7 29.97F PINOPOLIS N/A 84 66 54 NW2 29.91F MONCKS CORNER FAIR 84 66 54 CALM 29.97S SUMMERVILLE FAIR 84 64 51 N3 29.98S BEAUFORT MCAS MOSUNNY 84 64 50 E3 29.97S BEAUFORT ARPT FAIR 82 64 54 NE3 29.96F HILTON HEAD IS MOSUNNY 79 66 65 E5 29.99S GEORGETOWN NOT AVBL WALTERBORO MOCLDY 84 55 37 SE5 29.97F ORANGEBURG SUNNY 81 60 48 S3 29.97S BARNWELL FAIR 88 61 40 E3 29.97S AIKEN CLOUDY 86 63 45 SW6 30.00S MANNING MOCLDY 86 64 48 CALM 29.97S KINGSTREE NOT AVBL COLUMBIA MOSUNNY 87 55 33 SW5 29.95F SUMTER SUNNY 86 61 43 E5 29.95F FLORENCE SUNNY 84 63 49 VRB5 29.96F MYRTLE BEACH MOSUNNY 81 64 57 S7 29.97S N MYRTLE BEACH SUNNY 78 66 66 S8 29.97S $$ GAZ063-065-086>088-099>101-113>116-118-119-134-136>141-150-012100- ...GEORGIA... CITY SKY/WX TMP DP RH WIND PRES REMARKS SAVANNAH ARPT MOSUNNY 85 62 46 SE7 29.96F HUNTER AAF SUNNY 82 66 57 E9 29.95F FORT STEWART CLOUDY 82 64 54 E6 29.95S STATESBORO NOT AVBL SYLVANIA MOCLDY 87 64 47 CALM 29.98S CLAXTON FAIR 84 63 48 CALM 29.96S THOMSON SUNNY 86 67 53 CALM 30.01S AUGUSTA-BUSH SUNNY 84 60 44 CALM 29.95F AUGUSTA-DANIEL PTSUNNY 86 57 37 NW3 29.97F SWAINSBORO FAIR 86 64 48 SE5 29.97S VIDALIA MOSUNNY 86 66 51 E3 29.96F ALMA CLOUDY 83 63 50 CALM 29.96F WAYCROSS CLOUDY 84 70 61 CALM 29.96F JESUP CLOUDY 84 72 65 CALM 29.96S BRUNSWICK CLOUDY 81 64 57 E10 29.97S SAINT SIMONS CLOUDY 78 69 73 E10 29.97S $$ SCZ027-028-034-036>038-045-046-048>050-GAZ119-141-012100- ...LAKE AND SUPPLEMENTAL COASTAL OBSERVATIONS... STATION/POSITION TIME TEMP WIND PRES WAVE SWELL AIR SEA DIR/SP/G HT/PER HT/PER/DIR (UTC) (F) (DEG/KT/KT) (MB) (FT/S) (FT/S/D) UPR LAKE MARION NOT AVBL WINYAH BAY 2000 76 100/ 6 1015.0S LAKE MURRAY 1900 83 190/ 5/ 5 1014.2S ACE BASIN NERRS 2000 80 150/ 3 1015.0F FORT PULASKI 2000 78 80/ 8/ 9 1015.3S SAPELO ISLAND NOT AVBL $$ ANZ835-935-AMZ111-154-330-350-352-354-374-450-454-472-012100- ...C-MAN AND BUOY OBSERVATIONS... STATION/POSITION TIME TEMP WIND PRES WAVE SWELL AIR SEA DIR/SP/G HT/PER HT/PER/DIR (UTC) (F) (DEG/KT/KT) (MB) (FT/S) (FT/S/D) FOLLY BEACH CMAN 2000 76 110/ 7/ 8 1015.5F BUOY 41004 2000 77 81 30/ 8/ 10 1014.6R 3/ 6 2/ 6 BUOY 41008 2000 77 79 50/ 10/ 12 1014.6F 2/ 6 2/ 80/ 6 5E ST. MARYS GA 2000 79 N/A 3/ 6 FRYING PAN BUOY NOT AVBL BUOY 41025 2000 72 350/ 17/ 21 1014.0S 4/ 7 3/ 60/ 7 CAPE LOOKOUT NC 2000 75 50/ 8/ 9 1014.4F BUOY 41002 1939 79 81 20/ 10/ 12 1012.3F 4/ 7 3/ 20/ 7 BUOY 41010 2000 80 85 360/ 6/ 6 1013.1R 4/ 7 3/ 40/ 7 BUOY 41012 NOT AVBL ST AUGUSTINE FL 2000 79 20/ 14/ 16 1014.3R CAPERS NEARSHORE 1900 77 100/ 8/ 8 N/A FRIPP NEARSHORE NOT AVBL $$

USA.gov is the U.S. government's official web portal to all federal, state and local government web resources and services.